This demonstration page uses our WeatherBlox Daily Observations layout. Learn more.

Left ArrowRight Arrow

Hourly Observations for August 22, 2016

Temp ( °F °C ) Dew Point ( °F °C ) Humidity (%) Winds ( mph kmh ) Pressure ( in mb ) Visibility ( mi km ) Precip ( " mm )
12:14 am 00:14 Clear 57 14 57 14 100 100 Calm 30.12 1020 10 16.0934 N/A
12:34 am 00:34 Clear 57 14 55 13 94 94 Calm 30.15 1021 10 16.0934 N/A
12:54 am 00:54 Clear 57 14 55 13 94 94 Calm 30.15 1021 10 16.0934 N/A
1:14 am 01:14 Clear 57 14 55 13 94 94 Calm 30.15 1021 10 16.0934 N/A
1:34 am 01:34 Clear 55 13 55 13 100 100 Calm 30.15 1021 10 16.0934 N/A
1:54 am 01:54 Clear 55 13 55 13 100 100 Calm 30.15 1021 10 16.0934 N/A
2:14 am 02:14 Clear 55 13 55 13 100 100 Calm 30.15 1021 10 16.0934 N/A
2:34 am 02:34 Clear 55 13 55 13 100 100 Calm 30.15 1021 10 16.0934 N/A
2:54 am 02:54 Clear 55 13 55 13 100 100 Calm 30.15 1021 10 16.0934 N/A
3:14 am 03:14 Clear 55 13 55 13 100 100 Calm 30.15 1021 10 16.0934 N/A
3:34 am 03:34 Clear 54 12 54 12 100 100 Calm 30.18 1022 7 11.26538 N/A
3:54 am 03:54 Clear 55 13 54 12 94 94 Calm 30.15 1021 5 8.0467 N/A
4:14 am 04:14 Mostly Cloudy 54 12 54 12 100 100 Calm 30.18 1022 0.5 0.80467 N/A
4:34 am 04:34 Clear 55 13 55 13 100 100 Calm 30.15 1021 10 16.0934 N/A
4:54 am 04:54 Clear 54 12 54 12 100 100 Calm 30.18 1022 7 11.26538 N/A
5:14 am 05:14 Mostly Cloudy 54 12 54 12 100 100 Calm 30.18 1022 1.75 2.816345 N/A
5:34 am 05:34 Clear 55 13 55 13 100 100 Calm 30.15 1021 5 8.0467 N/A
5:54 am 05:54 Clear 54 12 54 12 100 100 Calm 30.21 1023 10 16.0934 N/A
6:14 am 06:14 Clear 54 12 54 12 100 100 Calm 30.21 1023 7 11.26538 N/A
6:34 am 06:34 Clear 54 12 54 12 100 100 Calm 30.21 1023 3 4.82802 N/A
6:54 am 06:54 Clear 54 12 54 12 100 100 Calm 30.21 1023 10 16.0934 N/A
7:14 am 07:14 Sunny 52 11 52 11 100 100 Calm 30.21 1023 2.5 4.02335 N/A
7:34 am 07:34 Sunny 52 11 52 11 100 100 Calm 30.21 1023 5 8.0467 N/A
7:54 am 07:54 Sunny 55 13 55 13 100 100 Calm 30.21 1023 7 11.26538 N/A
8:14 am 08:14 Sunny 57 14 57 14 100 100 Calm 30.18 1022 10 16.0934 N/A
8:34 am 08:34 Sunny 59 15 59 15 100 100 Calm 30.21 1023 10 16.0934 N/A
8:54 am 08:54 Sunny 61 16 59 15 94 94 Calm 30.21 1023 10 16.0934 N/A
9:14 am 09:14 Sunny 63 17 59 15 88 88 Calm 30.21 1023 10 16.0934 N/A
9:34 am 09:34 Sunny 64 18 59 15 83 83 Calm 30.21 1023 10 16.0934 N/A
9:54 am 09:54 Sunny 66 19 59 15 78 78 Calm 30.21 1023 10 16.0934 N/A
10:14 am 10:14 Sunny 66 19 59 15 78 78 Calm 30.24 1024 10 16.0934 N/A
10:34 am 10:34 Sunny 68 20 59 15 73 73 Calm 30.24 1024 10 16.0934 N/A
10:54 am 10:54 Sunny 70 21 61 16 73 73 Calm 30.24 1024 10 16.0934 N/A
11:14 am 11:14 Sunny 72 22 57 14 61 61 Calm 30.24 1024 10 16.0934 N/A
11:34 am 11:34 Sunny 72 22 57 14 61 61 Calm 30.24 1024 10 16.0934 N/A
11:54 am 11:54 Sunny 73 23 54 12 50 50 Calm 30.24 1024 10 16.0934 N/A
12:14 pm 12:14 Sunny 73 23 50 10 44 44 Calm 30.24 1024 10 16.0934 N/A
12:34 pm 12:34 Sunny 75 24 52 11 44 44 Calm 30.21 1023 10 16.0934 N/A
12:54 pm 12:54 Sunny 75 24 54 12 47 47 Calm 30.21 1023 10 16.0934 N/A
1:14 pm 13:14 Sunny 73 23 54 12 50 50 Calm 30.24 1024 10 16.0934 N/A
1:34 pm 13:34 Mostly Cloudy 75 24 54 12 47 47 Calm 30.21 1023 10 16.0934 N/A
1:54 pm 13:54 Cloudy 75 24 54 12 47 47 SSW 3 6 30.21 1023 10 16.0934 N/A
2:14 pm 14:14 Mostly Cloudy 75 24 55 13 50 50 S 3 6 30.21 1023 10 16.0934 N/A
2:34 pm 14:34 Partly Cloudy 75 24 55 13 50 50 S 3 6 30.18 1022 10 16.0934 N/A
2:54 pm 14:54 Partly Cloudy 75 24 55 13 50 50 SSW 3 6 30.18 1022 10 16.0934 N/A
3:14 pm 15:14 Partly Cloudy 77 25 57 14 51 51 SW 6 9 30.15 1021 10 16.0934 N/A
3:34 pm 15:34 Partly Cloudy 77 25 57 14 51 51 S 6 9 30.15 1021 10 16.0934 N/A
3:54 pm 15:54 Partly Cloudy 75 24 57 14 54 54 SSE 5 7 30.15 1021 10 16.0934 N/A
4:14 pm 16:14 undefined 75 24 57 14 54 54 S 3 6 30.15 1021 10 16.0934 N/A
4:34 pm 16:34 Partly Cloudy 77 25 57 14 51 51 SSE 5 7 30.15 1021 10 16.0934 N/A
4:54 pm 16:54 Partly Cloudy 75 24 57 14 54 54 S 6 9 30.15 1021 10 16.0934 N/A
5:14 pm 17:14 Partly Cloudy 75 24 57 14 54 54 S 6 9 30.15 1021 10 16.0934 N/A
5:34 pm 17:34 Mostly Cloudy 75 24 57 14 54 54 SSE 6 9 30.15 1021 10 16.0934 N/A
5:54 pm 17:54 Partly Cloudy 75 24 59 15 57 57 S 5 7 30.15 1021 10 16.0934 N/A
6:14 pm 18:14 Sunny 75 24 57 14 54 54 SSE 6 9 30.15 1021 10 16.0934 N/A
6:34 pm 18:34 Sunny 75 24 59 15 57 57 SSE 6 9 30.15 1021 10 16.0934 N/A
6:54 pm 18:54 Sunny 73 23 61 16 65 65 S 3 6 30.15 1021 10 16.0934 N/A
7:14 pm 19:14 Sunny 73 23 59 15 61 61 SSE 3 6 30.15 1021 10 16.0934 N/A
7:34 pm 19:34 Sunny 72 22 59 15 65 65 SSE 5 7 30.18 1022 10 16.0934 N/A
7:54 pm 19:54 Sunny 70 21 61 16 73 73 SSE 3 6 30.18 1022 10 16.0934 N/A
8:14 pm 20:14 Sunny 68 20 59 15 73 73 SE 3 6 30.18 1022 10 16.0934 N/A
8:34 pm 20:34 Clear 66 19 59 15 78 78 SSE 3 6 30.18 1022 10 16.0934 N/A
8:54 pm 20:54 Clear 66 19 59 15 78 78 SSE 3 6 30.18 1022 10 16.0934 N/A
9:14 pm 21:14 Clear 64 18 59 15 83 83 SSE 5 7 30.18 1022 10 16.0934 N/A
9:34 pm 21:34 Clear 64 18 57 14 78 78 SSE 5 7 30.18 1022 10 16.0934 N/A
9:54 pm 21:54 Clear 64 18 57 14 78 78 SSE 5 7 30.18 1022 10 16.0934 N/A
10:14 pm 22:14 Clear 63 17 57 14 83 83 S 3 6 30.18 1022 10 16.0934 N/A
10:34 pm 22:34 Clear 63 17 57 14 83 83 SSE 5 7 30.21 1023 10 16.0934 N/A
10:54 pm 22:54 Clear 63 17 57 14 83 83 S 3 6 30.21 1023 10 16.0934 N/A
11:14 pm 23:14 Clear 61 16 57 14 88 88 Calm 30.21 1023 10 16.0934 N/A
11:34 pm 23:34 Clear 61 16 57 14 88 88 S 3 6 30.21 1023 10 16.0934 N/A
11:54 pm 23:54 Clear 59 15 57 14 94 94 S 3 6 30.21 1023 10 16.0934 N/A

Powered by AerisWeather